Location: Rounton
(54.4000°N, 1.3500°W)
Time: 22:15:31
(UTC+00:00)

Vanguard 3 - Pass Details

Date: 03 December 2021
Orbit: 508 x 3260 km, 33.3° (Epoch: 17 January)

Event Time Altitude Azimuth Distance (km) Brightness Sun altitude
Rises 05:30:01 0° 240° (WSW) 7,220 - -21.4°
Exits shadow 05:31:56 - 237° (WSW) 6,863 11.4 -21.2°
Reaches altitude 10° 05:35:42 10° 232° (SW) 6,171 11.2 -20.6°
Maximum altitude 05:51:12 33° 179° (S) 3,978 10.7 -18.4°
Drops below altitude 10° 06:02:46 10° 123° (ESE) 4,606 12.1 -16.8°
Sets 06:06:16 0° 113° (ESE) 5,242 13.0 -16.3°
